timestamp,wind_dir_avg,wind_spd_avg,wind_spd_max_dir,wind_spd_gust,battery_voltage,lat,long
2022-04-16 00:04:01+00:00,219.0,4.42,220.0,5.37,12.49,47.59359,-54.27349
2022-04-16 00:14:01+00:00,226.0,5.28,215.0,6.49,12.33,47.59359,-54.27349
2022-04-16 00:24:01+00:00,177.0,4.2,211.0,5.36,12.33,47.59359,-54.27349
2022-04-16 00:34:01+00:00,213.0,5.59,215.0,6.28,12.33,47.59359,-54.27349
2022-04-16 00:44:01+00:00,199.0,5.33,222.0,6.55,12.33,47.59359,-54.27349
2022-04-16 00:54:01+00:00,215.0,5.87,217.0,6.39,12.33,47.59359,-54.27349
2022-04-16 01:04:01+00:00,213.0,5.52,216.0,6.3,12.33,47.59359,-54.27349
2022-04-16 01:14:00+00:00,188.0,4.47,213.0,6.03,12.33,47.59359,-54.27349
2022-04-16 01:24:00+00:00,197.0,4.07,217.0,5.26,12.33,47.59359,-54.27349
2022-04-16 01:34:00+00:00,153.0,4.49,154.0,5.15,12.33,47.59359,-54.27349
2022-04-16 01:44:00+00:00,179.0,3.34,181.0,3.55,12.33,47.59359,-54.27349
2022-04-16 01:54:00+00:00,208.0,3.28,217.0,3.8,12.33,47.59359,-54.27349
2022-04-16 02:04:00+00:00,172.0,3.08,169.0,3.35,12.33,47.59359,-54.27349
2022-04-16 02:14:01+00:00,185.0,4.98,186.0,5.91,12.33,47.59359,-54.27349
2022-04-16 02:24:01+00:00,180.0,5.42,177.0,5.92,12.33,47.59359,-54.27349
2022-04-16 02:34:01+00:00,171.0,4.48,177.0,5.51,12.33,47.59359,-54.27349
2022-04-16 02:44:01+00:00,191.0,2.85,215.0,3.41,12.33,47.59359,-54.27349
2022-04-16 02:54:01+00:00,171.0,3.69,170.0,4.82,12.33,47.59359,-54.27349
2022-04-16 03:04:01+00:00,170.0,1.36,152.0,2.3,12.33,47.59359,-54.27349
2022-04-16 03:14:00+00:00,125.0,0.78,106.0,1.75,12.25,47.59359,-54.27349
2022-04-16 03:24:00+00:00,151.0,3.72,136.0,4.69,12.25,47.59359,-54.27349
2022-04-16 03:34:00+00:00,163.0,5.64,166.0,6.73,12.25,47.59359,-54.27349
2022-04-16 03:44:00+00:00,167.0,7.6,169.0,8.43,12.25,47.59359,-54.27349
2022-04-16 03:54:00+00:00,154.0,7.99,139.0,9.98,12.25,47.59359,-54.27349
2022-04-16 04:04:00+00:00,148.0,8.99,135.0,10.97,12.25,47.59359,-54.27349
2022-04-16 04:14:00+00:00,158.0,10.3,146.0,12.26,12.25,47.59359,-54.27349
2022-04-16 04:24:00+00:00,164.0,9.9,165.0,12.01,12.25,47.59359,-54.27349
2022-04-16 04:34:00+00:00,163.0,10.69,163.0,12.07,12.25,47.59359,-54.27349
2022-04-16 04:44:00+00:00,162.0,10.32,171.0,11.92,12.25,47.59359,-54.27349
2022-04-16 04:54:00+00:00,163.0,10.64,162.0,11.81,12.25,47.59359,-54.27349
2022-04-16 05:04:00+00:00,167.0,12.76,174.0,14.96,12.25,47.59359,-54.27349
2022-04-16 05:14:01+00:00,166.0,10.13,168.0,11.47,12.25,47.59359,-54.27349
2022-04-16 05:24:01+00:00,168.0,10.63,160.0,11.64,12.25,47.59359,-54.27349
2022-04-16 05:34:01+00:00,173.0,10.92,172.0,12.45,12.25,47.59359,-54.27349
2022-04-16 05:44:01+00:00,174.0,9.22,175.0,10.63,12.25,47.59359,-54.27349
2022-04-16 05:54:01+00:00,165.0,7.26,146.0,9.08,12.25,47.59359,-54.27349
2022-04-16 06:04:01+00:00,154.0,9.89,135.0,13.03,12.25,47.59359,-54.27349
2022-04-16 06:14:01+00:00,173.0,6.66,171.0,7.57,12.09,47.59359,-54.27349
2022-04-16 06:24:01+00:00,171.0,7.9,177.0,9.21,12.09,47.59359,-54.27349
2022-04-16 06:34:01+00:00,159.0,7.55,156.0,9.18,12.09,47.59359,-54.27349
2022-04-16 06:44:01+00:00,162.0,7.45,159.0,8.8,12.09,47.59359,-54.27349
2022-04-16 06:54:01+00:00,157.0,9.1,159.0,10.66,12.09,47.59359,-54.27349
2022-04-16 07:04:01+00:00,145.0,7.97,135.0,11.32,12.09,47.59359,-54.27349
2022-04-16 07:14:01+00:00,150.0,7.28,135.0,9.51,12.09,47.59359,-54.27349
2022-04-16 07:24:01+00:00,147.0,7.53,150.0,8.47,12.09,47.59359,-54.27349
2022-04-16 07:34:01+00:00,136.0,7.72,131.0,10.3,12.09,47.59359,-54.27349
2022-04-16 07:44:01+00:00,135.0,7.01,128.0,9.81,12.09,47.59359,-54.27349
2022-04-16 07:54:01+00:00,129.0,7.5,133.0,9.35,12.09,47.59359,-54.27349
2022-04-16 08:04:01+00:00,143.0,6.66,128.0,8.2,12.09,47.59359,-54.27349
2022-04-16 08:14:01+00:00,135.0,5.72,130.0,6.76,12.09,47.59359,-54.27349
2022-04-16 08:24:01+00:00,155.0,5.18,173.0,6.68,12.09,47.59359,-54.27349
2022-04-16 08:34:01+00:00,153.0,5.57,163.0,6.75,12.09,47.59359,-54.27349
2022-04-16 08:44:01+00:00,160.0,6.79,155.0,7.79,12.09,47.59359,-54.27349
2022-04-16 08:54:01+00:00,159.0,5.49,157.0,6.62,12.09,47.59359,-54.27349
2022-04-16 09:04:01+00:00,153.0,4.35,149.0,5.46,12.09,47.59359,-54.27349
2022-04-16 09:14:00+00:00,173.0,4.64,165.0,6.5,12.09,47.59359,-54.27349
2022-04-16 09:24:00+00:00,177.0,6.31,179.0,7.39,12.09,47.59359,-54.27349
2022-04-16 09:34:00+00:00,170.0,7.25,175.0,9.37,12.09,47.59359,-54.27349
2022-04-16 09:44:00+00:00,170.0,6.52,165.0,7.72,12.09,47.59359,-54.27349
2022-04-16 09:54:00+00:00,172.0,4.16,174.0,4.49,12.09,47.59359,-54.27349
2022-04-16 10:04:00+00:00,180.0,6.66,188.0,7.59,12.09,47.59359,-54.27349
2022-04-16 10:14:00+00:00,192.0,6.77,196.0,7.71,12.01,47.59359,-54.27349
2022-04-16 10:24:00+00:00,173.0,7.7,173.0,9.23,12.01,47.59359,-54.27349
2022-04-16 10:34:00+00:00,172.0,9.05,177.0,11.93,12.01,47.59359,-54.27349
2022-04-16 10:44:00+00:00,176.0,9.08,175.0,10.09,12.01,47.59359,-54.27349
2022-04-16 10:54:00+00:00,179.0,11.46,177.0,13.09,12.01,47.59359,-54.27349
2022-04-16 11:04:00+00:00,185.0,11.37,182.0,13.39,12.01,47.59359,-54.27349
2022-04-16 11:14:00+00:00,190.0,10.8,186.0,12.05,12.09,47.59359,-54.27349
2022-04-16 11:24:00+00:00,192.0,9.02,195.0,9.98,12.09,47.59359,-54.27349
2022-04-16 11:34:00+00:00,195.0,6.86,201.0,7.88,12.09,47.59359,-54.27349
2022-04-16 11:44:00+00:00,224.0,7.81,225.0,8.89,12.09,47.59359,-54.27349
2022-04-16 11:54:00+00:00,225.0,6.45,220.0,7.7,12.09,47.59359,-54.27349
2022-04-16 12:04:00+00:00,230.0,5.19,229.0,6.33,12.09,47.59359,-54.27349
2022-04-16 12:14:00+00:00,259.0,5.22,258.0,5.79,13.29,47.59359,-54.27349
2022-04-16 12:24:00+00:00,254.0,4.45,249.0,5.05,13.29,47.59359,-54.27349
2022-04-16 12:34:00+00:00,290.0,6.06,303.0,6.87,13.29,47.59359,-54.27349
2022-04-16 12:44:00+00:00,300.0,8.97,295.0,11.49,13.29,47.59359,-54.27349
2022-04-16 12:54:00+00:00,300.0,6.23,288.0,7.94,13.29,47.59359,-54.27349
2022-04-16 13:04:00+00:00,299.0,5.92,296.0,6.88,13.29,47.59359,-54.27349
2022-04-16 13:14:00+00:00,300.0,9.65,287.0,14.81,14.24,47.59359,-54.27349
2022-04-16 13:24:00+00:00,309.0,6.48,312.0,8.21,14.24,47.59359,-54.27349
2022-04-16 13:34:00+00:00,322.0,8.26,323.0,10.66,14.24,47.59359,-54.27349
2022-04-16 13:44:00+00:00,304.0,9.44,295.0,14.08,14.24,47.59359,-54.27349
2022-04-16 13:54:00+00:00,313.0,9.02,316.0,10.16,14.24,47.59359,-54.27349
2022-04-16 14:04:00+00:00,299.0,7.58,302.0,8.77,14.24,47.59359,-54.27349
2022-04-16 14:14:01+00:00,281.0,4.95,281.0,5.53,13.68,47.59359,-54.27349
2022-04-16 14:24:01+00:00,302.0,7.49,302.0,8.67,13.68,47.59359,-54.27349
2022-04-16 14:34:01+00:00,286.0,5.9,295.0,7.71,13.68,47.59359,-54.27349
2022-04-16 14:44:01+00:00,294.0,5.76,297.0,6.82,13.68,47.59359,-54.27349
2022-04-16 14:54:01+00:00,295.0,7.68,289.0,9.67,13.68,47.59359,-54.27349
2022-04-16 15:04:01+00:00,308.0,9.33,306.0,10.63,13.68,47.59359,-54.27349
2022-04-16 15:14:00+00:00,291.0,8.35,293.0,10.6,14.32,47.59359,-54.27349
2022-04-16 15:24:00+00:00,298.0,9.85,291.0,12.18,14.32,47.59359,-54.27349
2022-04-16 15:34:00+00:00,294.0,8.09,293.0,9.14,14.32,47.59359,-54.27349
2022-04-16 15:44:00+00:00,299.0,8.17,285.0,9.91,14.32,47.59359,-54.27349
2022-04-16 15:54:00+00:00,287.0,8.07,287.0,9.01,14.32,47.59359,-54.27349
2022-04-16 16:04:00+00:00,261.0,7.34,261.0,8.75,14.32,47.59359,-54.27349
2022-04-16 16:14:01+00:00,271.0,7.95,276.0,8.69,14.4,47.59359,-54.27349
2022-04-16 16:24:01+00:00,251.0,5.25,249.0,5.77,14.4,47.59359,-54.27349
2022-04-16 16:34:01+00:00,239.0,7.11,239.0,8.31,14.4,47.59359,-54.27349
2022-04-16 16:44:01+00:00,242.0,6.15,239.0,7.13,14.4,47.59359,-54.27349
2022-04-16 16:54:01+00:00,230.0,5.16,238.0,7.16,14.4,47.59359,-54.27349
2022-04-16 17:04:01+00:00,203.0,8.11,215.0,10.78,14.4,47.59359,-54.27349
2022-04-16 17:14:00+00:00,200.0,8.49,200.0,9.44,14.32,47.59359,-54.27349
2022-04-16 17:24:00+00:00,203.0,8.04,205.0,8.96,14.32,47.59359,-54.27349
2022-04-16 17:34:00+00:00,212.0,8.39,215.0,9.71,14.32,47.59359,-54.27349
2022-04-16 17:44:00+00:00,209.0,8.79,212.0,9.95,14.32,47.59359,-54.27349
2022-04-16 17:54:00+00:00,206.0,8.26,211.0,9.16,14.32,47.59359,-54.27349
2022-04-16 18:04:00+00:00,213.0,12.05,212.0,13.26,14.32,47.59359,-54.27349
2022-04-16 18:14:00+00:00,210.0,13.05,207.0,15.25,14.08,47.59359,-54.27349
2022-04-16 18:24:00+00:00,210.0,13.38,207.0,15.06,14.08,47.59359,-54.27349
2022-04-16 18:34:00+00:00,210.0,14.43,212.0,16.62,14.08,47.59359,-54.27349
2022-04-16 18:44:00+00:00,212.0,14.51,213.0,17.41,14.08,47.59359,-54.27349
2022-04-16 18:54:00+00:00,212.0,15.68,211.0,19.23,14.08,47.59359,-54.27349
2022-04-16 19:04:00+00:00,216.0,14.98,214.0,16.9,14.08,47.59359,-54.27349
2022-04-16 19:14:01+00:00,217.0,14.89,214.0,16.68,13.76,47.59359,-54.27349
2022-04-16 19:24:01+00:00,223.0,13.37,222.0,14.55,13.76,47.59359,-54.27349
2022-04-16 19:34:01+00:00,218.0,13.03,221.0,14.81,13.76,47.59359,-54.27349
2022-04-16 19:44:01+00:00,217.0,14.04,218.0,15.5,13.76,47.59359,-54.27349
2022-04-16 19:54:01+00:00,211.0,11.8,217.0,14.56,13.76,47.59359,-54.27349
2022-04-16 20:04:01+00:00,196.0,9.68,199.0,10.56,13.76,47.59359,-54.27349
2022-04-16 20:14:01+00:00,211.0,9.52,215.0,11.08,13.76,47.59359,-54.27349
2022-04-16 20:24:01+00:00,212.0,10.2,218.0,11.55,13.76,47.59359,-54.27349
2022-04-16 20:34:01+00:00,212.0,10.38,206.0,13.8,13.76,47.59359,-54.27349
2022-04-16 20:44:01+00:00,212.0,14.04,216.0,15.84,13.76,47.59359,-54.27349
2022-04-16 20:54:01+00:00,214.0,13.78,214.0,15.46,13.76,47.59359,-54.27349
2022-04-16 21:04:01+00:00,216.0,14.0,214.0,15.45,13.76,47.59359,-54.27349
2022-04-16 21:14:01+00:00,216.0,13.17,218.0,15.11,13.6,47.59359,-54.27349
2022-04-16 21:24:01+00:00,215.0,13.89,213.0,15.09,13.6,47.59359,-54.27349
2022-04-16 21:34:01+00:00,216.0,12.49,211.0,13.89,13.6,47.59359,-54.27349
2022-04-16 21:44:01+00:00,214.0,12.08,210.0,13.78,13.6,47.59359,-54.27349
2022-04-16 21:54:01+00:00,215.0,12.03,213.0,13.65,13.6,47.59359,-54.27349
2022-04-16 22:04:01+00:00,216.0,11.93,215.0,14.14,13.6,47.59359,-54.27349
2022-04-16 22:14:00+00:00,217.0,11.83,212.0,14.21,13.13,47.59359,-54.27349
2022-04-16 22:24:00+00:00,216.0,12.51,221.0,14.5,13.13,47.59359,-54.27349
2022-04-16 22:34:00+00:00,216.0,10.78,219.0,12.01,13.13,47.59359,-54.27349
2022-04-16 22:44:00+00:00,213.0,11.31,214.0,13.18,13.13,47.59359,-54.27349
2022-04-16 22:54:00+00:00,213.0,11.07,210.0,12.43,13.13,47.59359,-54.27349
2022-04-16 23:04:00+00:00,212.0,11.75,213.0,12.86,13.13,47.59359,-54.27349
2022-04-16 23:14:00+00:00,212.0,12.34,210.0,13.53,12.49,47.59359,-54.27349
2022-04-16 23:24:00+00:00,212.0,12.85,220.0,14.94,12.49,47.59359,-54.27349
2022-04-16 23:34:00+00:00,212.0,12.2,214.0,13.38,12.49,47.59359,-54.27349
2022-04-16 23:44:00+00:00,215.0,11.5,224.0,12.92,12.49,47.59359,-54.27349
2022-04-16 23:54:00+00:00,212.0,11.12,209.0,12.21,12.49,47.59359,-54.27349
